[[{"header":{"parameterUnit":"m.s-1","parameterCategory":1,"la1":30.2991,"la2":30.254,"lo1":-89.0895,"lo2":-89.0444,"dy":0.0017,"dx":0.0017,"nx":28,"ny":28,"refTime":"2025-06-20T03:00:00:Z","depth":0,"parameterNumber":2,"parameterNumberName":"U-component_of_WINDS"},"data":[0,0,0,0,0,0,0,0,0,0,0,0,0,0,0,0,0,0,0,0,0,0,0,0,0,0,0,0,0,0,0,0,0,0,0,0,0,0,0,0,0,0,0,0,0,0,0,0,0,0,0,0,0,0,0,0,0,0,0.5807,0.5807,0,0.576,0.5759,0.5759,0.5731,0.5731,0.5731,0.5731,0.5681,0.568,0.5679,0,0,0,0,0,0,0,0,0,0,0,0,0,0.5869,0.5868,0.5807,0.5806,0.5806,0.576,0.5759,0.5759,0.5731,0.5731,0.5731,0.5731,0.5681,0.568,0.5678,0,0,0,0,0,0,0,0,0,0,0,0,0,0.5834,0.5867,0.5807,0.5787,0.5784,0.576,0.5759,0.5758,0.5731,0.5731,0.5731,0.573,0.5682,0.568,0.5678,0.5671,0,0,0.5673,0.5672,0,0,0,0,0,0,0,0,0.5836,0.5831,0.579,0.5788,0.5785,0.5751,0.5763,0.5729,0.5731,0.5751,0.5731,0.573,0.5704,0.5701,0.5692,0.5668,0.5666,0.5673,0.5671,0.5671,0.567,0,0,0,0,0,0,0,0.5838,0.5833,0.5788,0.579,0.5787,0.5778,0.5773,0.5756,0.5729,0.5749,0.5747,0.5742,0.5703,0.5694,0.5691,0.5665,0.5673,0.5671,0.567,0.5669,0.5628,0.5628,0,0,0,0,0,0,0.5844,0.5836,0.579,0.5787,0.5811,0.5777,0.5771,0.5762,0.5729,0.5724,0.5742,0.5741,0.5697,0.5693,0.5689,0.5675,0.5671,0.5669,0.5668,0.5628,0.5628,0.5628,0,0,0,0,0,0,0.5846,0.5841,0.5792,0.5811,0.5804,0.5776,0.5766,0.5761,0.5752,0.5724,0.5719,0.5738,0.5697,0.5691,0.5674,0.5673,0.5668,0.5666,0.5628,0.5628,0.5628,0.5649,0,0,0,0,0,0,0.5848,0.5841,0.584,0.5811,0.5803,0.578,0.5766,0.5761,0.575,0.5747,0.5719,0.5714,0.5696,0.5677,0.5673,0.5671,0.5665,0.5628,0.5628,0.5628,0.5649,0.565,0.5651,0,0,0,0,0,0.585,0.5848,0.584,0.5834,0.58,0.578,0.5775,0.5755,0.575,0.5746,0.5727,0.5715,0.5674,0.5676,0.567,0.5668,0.5628,0.5628,0.5628,0.5648,0.565,0.5651,0,0,0,0,0,0,0.5878,0.5844,0.5834,0.5823,0.5804,0.5775,0.5771,0.5758,0.574,0.5739,0.5714,0.5708,0.5692,0.5678,0.5681,0.5656,0.5649,0.5648,0.5666,0.5668,0.5669,0.5673,0.5664,0,0,0,0,0,0.5883,0.587,0.5841,0.5833,0.5824,0.5799,0.579,0.5775,0.5755,0.5747,0.5727,0.5706,0.5688,0.5677,0.5659,0.5646,0.5638,0.5641,0.5642,0.5643,0.5643,0.5631,0.5631,0.5628,0.5628,0.5628,0,0,0.5893,0.5873,0.5866,0.5838,0.5822,0.5808,0.5793,0.5779,0.5767,0.5744,0.5727,0.5711,0.5686,0.567,0.5662,0.5657,0.5641,0.5643,0.5645,0.5643,0.5631,0.5631,0.5632,0.5628,0.5628,0.5628,0,0,0.5904,0.5888,0.5879,0.5862,0.5837,0.582,0.5817,0.5789,0.5777,0.5759,0.574,0.5725,0.5695,0.5677,0.5664,0.5663,0.565,0.5658,0.5665,0.5654,0.5654,0.5654,0.5652,0.5651,0.5657,0.5657,0.5657,0,0.5919,0.5898,0.5876,0.5862,0.5849,0.5826,0.5815,0.58,0.577,0.5761,0.5756,0.5716,0.5698,0.5676,0.5675,0.5666,0.566,0.5662,0.5656,0.5656,0.5656,0.5653,0.5652,0.5658,0.5658,0.5658,0.5658,0,0.5917,0.5902,0.5897,0.5869,0.5855,0.5843,0.5817,0.5805,0.5791,0.5773,0.5752,0.5729,0.5704,0.5698,0.5684,0.5672,0.567,0.5661,0.5654,0.5657,0.5654,0.5653,0.566,0.5659,0.5659,0.5659,0,0,0.5947,0.5903,0.5902,0.5887,0.5856,0.5843,0.5828,0.5803,0.5793,0.5772,0.5757,0.573,0.5721,0.5706,0.5689,0.568,0.5677,0.5671,0.567,0.5672,0.5658,0.5665,0.5665,0.5667,0.5667,0.5667,0.566,0,0.5952,0.5926,0.5903,0.5884,0.5868,0.5844,0.583,0.5808,0.579,0.5772,0.5752,0.5733,0.5722,0.5713,0.5702,0.568,0.5674,0.568,0.5652,0.5651,0.5659,0.5663,0.5671,0.5666,0.5659,0.5659,0.5658,0,0.5956,0.5935,0.5914,0.5881,0.5874,0.5862,0.5836,0.582,0.5793,0.578,0.5761,0.5743,0.5723,0.5717,0.5688,0.5692,0.5679,0.5665,0.5665,0.5661,0.5655,0.5659,0.5664,0.5663,0.5657,0.5657,0.5657,0,0.5978,0.5945,0.5927,0.5915,0.5876,0.5868,0.5851,0.5824,0.581,0.5786,0.5776,0.575,0.5736,0.5715,0.5689,0.5688,0.5662,0.5654,0.5649,0.5649,0.5646,0.5646,0.5648,0.5638,0.5638,0.5638,0.5638,0,0.5986,0.5974,0.5936,0.5925,0.5909,0.5882,0.5866,0.5847,0.5823,0.5806,0.5783,0.5767,0.5735,0.5714,0.5693,0.5671,0.5665,0.5652,0.5647,0.5654,0.5656,0.5645,0.5645,0.5637,0.5638,0.5638,0.5638,0,0.6009,0.5983,0.5962,0.5926,0.5916,0.5906,0.5874,0.5861,0.584,0.5819,0.5812,0.5779,0.5753,0.5725,0.5691,0.5676,0.5654,0.5647,0.5664,0.566,0.5656,0.5657,0.5651,0.5648,0.5641,0.5641,0.5641,0,0.6016,0.6006,0.5968,0.5955,0.5939,0.5919,0.5903,0.5874,0.5859,0.5824,0.5815,0.5787,0.5764,0.5723,0.5695,0.5667,0.5658,0.5658,0.5654,0.566,0.5656,0.5657,0.5655,0.566,0.566,0.566,0.566,0,0.6031,0.6017,0.5996,0.5969,0.5951,0.5929,0.5905,0.5895,0.5861,0.5844,0.5817,0.5799,0.5762,0.5734,0.5701,0.5682,0.5664,0.5661,0.5658,0.5666,0.5675,0.5668,0.5666,0.5662,0.5662,0.5662,0.5662,0.5662,0.6045,0.6033,0.6004,0.598,0.5959,0.5936,0.5921,0.5897,0.5875,0.5843,0.5826,0.5799,0.5768,0.5723,0.5703,0.5679,0.5674,0.5671,0.567,0.5669,0.567,0.5679,0.5674,0.5673,0.5673,0.5673,0.5673,0,0.6057,0.6036,0.6014,0.5981,0.5961,0.5946,0.5918,0.5902,0.5878,0.5851,0.5828,0.5795,0.5766,0.5734,0.5703,0.569,0.5681,0.5683,0.5683,0.5678,0.5677,0.5682,0.569,0.569,0.569,0.569,0.569,0.569,0.6061,0.604,0.6022,0.5989,0.5967,0.5941,0.5925,0.5903,0.5881,0.5845,0.5822,0.5801,0.577,0.5736,0.5708,0.5699,0.5688,0.5692,0.568,0.568,0.5679,0.5678,0.5682,0.569,0.569,0.5683,0.5683,0.5683]},{"header":{"parameterUnit":"m.s-1","parameterCategory":1,"la1":30.2991,"la2":30.254,"lo1":-89.0895,"lo2":-89.0444,"dy":0.0017,"dx":0.0017,"nx":28,"ny":28,"refTime":"2025-06-20T03:00:00:Z","depth":0,"parameterNumber":3,"parameterNumberName":"V-component_of_WINDS"},"data":[0,0,0,0,0,0,0,0,0,0,0,0,0,0,0,0,0,0,0,0,0,0,0,0,0,0,0,0,0,0,0,0,0,0,0,0,0,0,0,0,0,0,0,0,0,0,0,0,0,0,0,0,0,0,0,0,0,0,3.1127,3.1126,0,3.11,3.11,3.11,3.1031,3.1029,3.1028,3.1026,3.0999,3.1,3.1001,0,0,0,0,0,0,0,0,0,0,0,0,0,3.1117,3.1117,3.1127,3.1126,3.1126,3.11,3.11,3.11,3.1031,3.1029,3.1027,3.1026,3.0999,3.1,3.1001,0,0,0,0,0,0,0,0,0,0,0,0,0,3.1109,3.1117,3.1127,3.1089,3.1085,3.11,3.11,3.11,3.1031,3.1029,3.1027,3.1025,3.0999,3.1,3.1001,3.1051,0,0,3.1004,3.1004,0,0,0,0,0,0,0,0,3.1109,3.1109,3.1095,3.1091,3.1087,3.1066,3.1086,3.1083,3.1032,3.1052,3.1026,3.1024,3.1024,3.1022,3.1022,3.105,3.1049,3.1004,3.1005,3.1005,3.1005,0,0,0,0,0,0,0,3.111,3.111,3.1116,3.1094,3.109,3.1073,3.1069,3.1086,3.105,3.105,3.1045,3.1043,3.1021,3.1021,3.1021,3.1048,3.1004,3.1005,3.1005,3.1006,3.1113,3.1116,0,0,0,0,0,0,3.1116,3.1111,3.1117,3.1115,3.1093,3.1075,3.1071,3.1075,3.105,3.1044,3.1044,3.1039,3.1021,3.102,3.102,3.1075,3.1005,3.1006,3.1006,3.1111,3.1114,3.1116,0,0,0,0,0,0,3.1116,3.1117,3.1118,3.1112,3.1111,3.1077,3.1083,3.1076,3.1076,3.1046,3.1039,3.1051,3.1019,3.1019,3.1043,3.1073,3.1006,3.1007,3.1109,3.1112,3.1115,3.1188,0,0,0,0,0,0,3.1116,3.1118,3.1137,3.1113,3.1111,3.1143,3.1085,3.1077,3.1078,3.1071,3.1051,3.1045,3.1017,3.1042,3.1044,3.1074,3.1008,3.1106,3.111,3.1114,3.1183,3.1193,3.1202,0,0,0,0,0,3.1116,3.1159,3.1138,3.1139,3.1134,3.1145,3.1144,3.1111,3.1081,3.1099,3.108,3.1046,3.107,3.1045,3.1047,3.1077,3.1104,3.1109,3.1114,3.1178,3.1191,3.1202,0,0,0,0,0,0,3.1188,3.1155,3.1132,3.1168,3.116,3.1133,3.1155,3.1126,3.1126,3.1119,3.1079,3.1075,3.1105,3.1093,3.1067,3.1123,3.1081,3.1087,3.1129,3.1142,3.1151,3.1153,3.1009,0,0,0,0,0,3.1208,3.1219,3.119,3.1225,3.1222,3.1189,3.1193,3.1168,3.1157,3.1153,3.1135,3.1127,3.1132,3.1136,3.114,3.1181,3.1174,3.1202,3.1212,3.1221,3.1226,3.1244,3.1256,3.1133,3.1133,3.1133,0,0,3.125,3.1233,3.1243,3.1239,3.1229,3.1241,3.1187,3.1202,3.121,3.1156,3.1177,3.1164,3.1151,3.1184,3.1198,3.1176,3.1258,3.1227,3.1234,3.1234,3.1251,3.1263,3.1273,3.1137,3.1136,3.1135,0,0,3.1331,3.132,3.1347,3.1338,3.1324,3.1302,3.1309,3.1286,3.1275,3.1296,3.1255,3.1264,3.1275,3.1267,3.1264,3.1341,3.1309,3.1343,3.1395,3.1414,3.1424,3.1432,3.1458,3.1468,3.1349,3.1349,3.1349,0,3.1384,3.1401,3.1365,3.1382,3.1381,3.1332,3.1358,3.1351,3.134,3.1339,3.1315,3.1326,3.1314,3.1343,3.1362,3.1362,3.1367,3.1345,3.1425,3.1433,3.144,3.1464,3.1474,3.1353,3.1353,3.1352,3.1352,0,3.1466,3.1478,3.1501,3.149,3.1492,3.1514,3.148,3.1486,3.1461,3.1442,3.1463,3.1447,3.1445,3.1451,3.1427,3.1476,3.1462,3.1433,3.1389,3.1457,3.1479,3.1488,3.1359,3.1357,3.1356,3.1355,0,0,3.1592,3.156,3.1569,3.1562,3.1543,3.1551,3.157,3.1568,3.1573,3.1566,3.158,3.159,3.1561,3.1558,3.1533,3.155,3.161,3.1517,3.1516,3.1534,3.1661,3.1683,3.1694,3.1589,3.159,3.1592,3.1661,0,3.1667,3.1698,3.1666,3.1703,3.1712,3.1665,3.1681,3.1671,3.1653,3.1658,3.1638,3.1645,3.1608,3.1605,3.162,3.1599,3.1634,3.1594,3.16,3.1601,3.1604,3.1706,3.1729,3.1796,3.167,3.1671,3.1672,0,3.176,3.1756,3.1794,3.177,3.1773,3.1788,3.1783,3.1789,3.1775,3.1761,3.1757,3.1726,3.1742,3.1701,3.1722,3.1695,3.1696,3.1686,3.1688,3.1686,3.164,3.1705,3.1816,3.1826,3.1686,3.1685,3.1684,0,3.1846,3.1851,3.1873,3.1869,3.1843,3.1854,3.1844,3.1828,3.1828,3.1824,3.1823,3.1821,3.1819,3.1818,3.1787,3.176,3.1811,3.1767,3.1799,3.1799,3.1811,3.181,3.1922,3.1814,3.1814,3.1813,3.1813,0,3.1932,3.1957,3.1911,3.1925,3.1951,3.1913,3.1939,3.1924,3.191,3.192,3.1879,3.1889,3.1848,3.1853,3.1829,3.1849,3.1849,3.1837,3.183,3.184,3.1842,3.1839,3.1833,3.1816,3.1815,3.1815,3.1814,0,3.2033,3.2003,3.2024,3.1997,3.1991,3.2011,3.1987,3.1998,3.1977,3.199,3.199,3.1958,3.1961,3.193,3.1929,3.1912,3.1943,3.1929,3.1948,3.1943,3.1975,3.1972,3.2088,3.2101,3.1986,3.1987,3.1988,0,3.2089,3.2107,3.2081,3.2084,3.2075,3.2082,3.2081,3.2045,3.2046,3.2031,3.2044,3.2044,3.2042,3.205,3.2026,3.2024,3.2009,3.205,3.2008,3.2017,3.2007,3.2006,3.2007,3.2058,3.2059,3.2061,3.2062,0,3.2193,3.2177,3.2178,3.2174,3.2174,3.2169,3.2162,3.2167,3.2126,3.213,3.2133,3.2132,3.2129,3.2129,3.2122,3.2111,3.2079,3.2075,3.2082,3.2091,3.2101,3.2095,3.197,3.2072,3.2071,3.207,3.207,3.2069,3.2272,3.2284,3.2268,3.227,3.226,3.2253,3.2262,3.2242,3.2244,3.2238,3.2217,3.2223,3.2208,3.2195,3.2186,3.219,3.217,3.2181,3.2183,3.2186,3.2191,3.2101,3.2189,3.2189,3.2188,3.2188,3.2188,0,3.2371,3.2358,3.236,3.235,3.2352,3.2322,3.2311,3.2314,3.2321,3.2309,3.2308,3.231,3.231,3.2286,3.2282,3.229,3.2275,3.229,3.2289,3.2286,3.221,3.2204,3.2302,3.2302,3.2302,3.2302,3.2302,3.2302,3.2423,3.2443,3.2425,3.2438,3.2425,3.243,3.2427,3.242,3.241,3.2415,3.2414,3.2398,3.2381,3.2376,3.2374,3.2366,3.2367,3.2386,3.2374,3.2303,3.2292,3.2281,3.2275,3.2387,3.2387,3.245,3.245,3.2451]}]]